Durant, OK

2:07 AM CST on November 17, 2019 (GMT -0600)
Eaker

Weather History for KDUA - October, 2019

Change the Weather History Date:

Wednesday, October 23, 2019

  Actual Average (WUND) Record (WUND)
Temperature  
Mean Temperature 63 °F -  
Max Temperature 80 °F - - (-1)
Min Temperature 46 °F - - (-1)
Degree Days  
Heating Degree Days 2    
Growing Degree Days 13 (Base 50)    
Moisture  
Dew Point 43 °F    
Average Humidity 51    
Maximum Humidity 76    
Minimum Humidity 30    
Precipitation  
Precipitation 0.00 in - - ()
Sea Level Pressure  
Sea Level Pressure 30.03 in    
Wind  
Wind Speed 8 mph (SSE)    
Max Wind Speed 24 mph    
Max Gust Speed 37 mph    
Visibility 10 miles    
Events      
Averages and records for this station are not official NWS values.
T = Trace of Precipitation, MM = Missing Value Source: NWS Daily Summary

Daily Weather History Graph

Daily Weather History Graph

Search for Another Location

Airport or City:

Astronomy

Oct. 23, 2019 Rise Set
Actual Time 7:36 AM CDT 6:42 PM CDT
Civil Twilight 7:11 AM CDT 7:07 PM CDT
Nautical Twilight 6:42 AM CDT 7:36 PM CDT
Astronomical Twilight 6:13 AM CDT 8:05 PM CDT
Moon 2:17 AM CDT (10/23) 4:15 PM CDT (10/23)
Length of Visible Light 11h 56m
Length of Day
11h 05m
Waning Crescent, 26% of the Moon is Illuminated
Oct 23
Waning Crescent
Oct 27
New
Nov 4
First Quarter
Nov 12
Full
Nov 19
Last Quarter

Hourly Weather History & Observations

Time (CDT) Temp. Windchill Dew Point Humidity Pressure Visibility Wind Dir Wind Speed Gust Speed Precip Events Conditions
12:36 AM 50.0 °F - 35.6 °F 58% 30.10 in 10.0 mi South 3.5 mph - N/A   Clear
1:16 AM 48.2 °F - 37.4 °F 66% 30.09 in 10.0 mi SSE 3.5 mph - N/A   Clear
1:37 AM 48.2 °F - 37.4 °F 66% 30.09 in 10.0 mi SSE 3.5 mph - N/A   Clear
1:57 AM 48.2 °F - 37.4 °F 66% 30.09 in 10.0 mi Calm Calm - N/A   Clear
2:16 AM 48.2 °F - 37.4 °F 66% 30.09 in 10.0 mi SSE 4.6 mph - N/A   Clear
2:57 AM 46.4 °F 43.5 °F 37.4 °F 71% 30.09 in 10.0 mi SSE 5.8 mph - N/A   Clear
3:16 AM 46.4 °F 45.2 °F 37.4 °F 71% 30.09 in 10.0 mi SSE 3.5 mph - N/A   Clear
3:37 AM 46.4 °F - 37.4 °F 71% 30.08 in 10.0 mi Calm Calm - N/A   Clear
3:57 AM 46.4 °F 44.3 °F 39.2 °F 76% 30.08 in 10.0 mi SE 4.6 mph - N/A   Clear
4:36 AM 46.4 °F 44.3 °F 37.4 °F 71% 30.07 in 10.0 mi SSE 4.6 mph - N/A   Clear
4:56 AM 46.4 °F 43.5 °F 39.2 °F 76% 30.07 in 10.0 mi SSE 5.8 mph - N/A   Clear
5:16 AM 46.4 °F 43.5 °F 39.2 °F 76% 30.08 in 10.0 mi SSE 5.8 mph - N/A   Clear
5:39 AM 46.4 °F 44.3 °F 39.2 °F 76% 30.08 in 10.0 mi South 4.6 mph - N/A   Clear
5:57 AM 46.4 °F 44.3 °F 39.2 °F 76% 30.08 in 10.0 mi SSE 4.6 mph - N/A   Clear
6:19 AM 46.4 °F 43.5 °F 39.2 °F 76% 30.08 in 10.0 mi SSE 5.8 mph - N/A   Clear
6:38 AM 46.4 °F 44.3 °F 39.2 °F 76% 30.08 in 10.0 mi SSE 4.6 mph - N/A   Clear
6:56 AM 46.4 °F 43.5 °F 39.2 °F 76% 30.08 in 10.0 mi SSE 5.8 mph - N/A   Clear
7:17 AM 46.4 °F 43.5 °F 39.2 °F 76% 30.08 in 10.0 mi SSE 5.8 mph - N/A   Clear
7:36 AM 46.4 °F 42.9 °F 39.2 °F 76% 30.08 in 10.0 mi SSE 6.9 mph - N/A   Clear
7:58 AM 46.4 °F 43.5 °F 39.2 °F 76% 30.08 in 10.0 mi SSE 5.8 mph - N/A   Clear
8:16 AM 48.2 °F - 41.0 °F 76% 30.09 in 10.0 mi SSE 4.6 mph - N/A   Clear
8:36 AM 50.0 °F - 42.8 °F 76% 30.09 in 10.0 mi SSE 5.8 mph - N/A   Clear
9:36 AM 57.2 °F - 44.6 °F 63% 30.10 in 10.0 mi South 8.1 mph - N/A   Clear
9:58 AM 62.6 °F - 44.6 °F 52% 30.10 in 10.0 mi South 10.4 mph - N/A   Clear
10:18 AM 64.4 °F - 42.8 °F 45% 30.10 in 10.0 mi South 15.0 mph - N/A   Clear
10:56 AM 69.8 °F - 41.0 °F 35% 30.09 in 10.0 mi SSW 12.7 mph 25.3 mph N/A   Clear
11:16 AM 71.6 °F - 42.8 °F 35% 30.09 in 10.0 mi South 18.4 mph - N/A   Clear
11:38 AM 71.6 °F - 44.6 °F 38% 30.08 in 10.0 mi SSW 19.6 mph 27.6 mph N/A   Clear
11:58 AM 71.6 °F - 46.4 °F 41% 30.07 in 10.0 mi SSW 18.4 mph 27.6 mph N/A   Clear
12:18 PM 73.4 °F - 48.2 °F 41% 30.06 in 10.0 mi SSW 19.6 mph 29.9 mph N/A   Clear
12:37 PM 73.4 °F - 48.2 °F 41% 30.05 in 10.0 mi South 23.0 mph 29.9 mph N/A   Clear
1:18 PM 75.2 °F - 48.2 °F 38% 30.03 in 10.0 mi SSW 21.9 mph 32.2 mph N/A   Clear
1:38 PM 77.0 °F - 46.4 °F 34% 30.00 in 10.0 mi SSW 21.9 mph 29.9 mph N/A   Clear
1:56 PM 77.0 °F - 44.6 °F 32% 29.99 in 10.0 mi SSW 24.2 mph 33.4 mph N/A   Clear
2:16 PM 78.8 °F - 44.6 °F 30% 29.98 in 10.0 mi SSW 18.4 mph 36.8 mph N/A   Clear
2:36 PM 78.8 °F - 44.6 °F 30% 29.97 in 10.0 mi South 23.0 mph 28.8 mph N/A   Clear
2:58 PM 78.8 °F - 46.4 °F 32% 29.96 in 10.0 mi SSW 19.6 mph 29.9 mph N/A   Clear
3:16 PM 78.8 °F - 46.4 °F 32% 29.95 in 10.0 mi South 20.7 mph 27.6 mph N/A   Clear
3:38 PM 78.8 °F - 46.4 °F 32% 29.95 in 10.0 mi South 21.9 mph 28.8 mph N/A   Clear
3:59 PM 78.8 °F - 46.4 °F 32% 29.95 in 10.0 mi South 20.7 mph 27.6 mph N/A   Clear
4:16 PM 80.6 °F - 46.4 °F 30% 29.95 in 10.0 mi South 19.6 mph 24.2 mph N/A   Clear
4:36 PM 80.6 °F - 46.4 °F 30% 29.95 in 10.0 mi South 16.1 mph - N/A   Clear
4:56 PM 80.6 °F - 46.4 °F 30% 29.95 in 10.0 mi South 15.0 mph 26.5 mph N/A   Clear
5:39 PM 78.8 °F - 46.4 °F 32% 29.95 in 10.0 mi South 12.7 mph - N/A   Scattered Clouds
5:56 PM 78.8 °F - 46.4 °F 32% 29.95 in 10.0 mi South 9.2 mph - N/A   Scattered Clouds
6:17 PM 75.2 °F - 48.2 °F 38% 29.96 in 10.0 mi SSE 9.2 mph - N/A   Scattered Clouds
6:36 PM 75.2 °F - 48.2 °F 38% 29.96 in 10.0 mi SSE 9.2 mph - N/A   Mostly Cloudy
6:57 PM 73.4 °F - 48.2 °F 41% 29.96 in 10.0 mi SSE 9.2 mph - N/A   Overcast
7:19 PM 71.6 °F - 48.2 °F 43% 29.97 in 10.0 mi SE 8.1 mph - N/A   Overcast
7:39 PM 71.6 °F - 48.2 °F 43% 29.98 in 10.0 mi SE 8.1 mph - N/A   Overcast
7:56 PM 71.6 °F - 44.6 °F 38% 29.99 in 10.0 mi SE 10.4 mph - N/A   Overcast
8:16 PM 71.6 °F - 42.8 °F 35% 29.99 in 10.0 mi SE 11.5 mph 16.1 mph N/A   Overcast
8:36 PM 69.8 °F - 42.8 °F 38% 30.00 in 10.0 mi SE 9.2 mph - N/A   Overcast
8:56 PM 69.8 °F - 41.0 °F 35% 30.01 in 10.0 mi SE 10.4 mph - N/A   Overcast
9:16 PM 69.8 °F - 41.0 °F 35% 30.01 in 10.0 mi SE 9.2 mph - N/A   Overcast
9:39 PM 68.0 °F - 42.8 °F 40% 30.02 in 10.0 mi SE 10.4 mph - N/A   Overcast
10:17 PM 66.2 °F - 42.8 °F 43% 30.01 in 10.0 mi SSE 15.0 mph - N/A   Clear
10:39 PM 66.2 °F - 42.8 °F 43% 30.01 in 10.0 mi SSE 13.8 mph - N/A   Clear
11:17 PM 66.2 °F - 44.6 °F 46% 30.01 in 10.0 mi SSE 13.8 mph 20.7 mph N/A   Clear
11:38 PM 66.2 °F - 44.6 °F 46% 30.01 in 10.0 mi SSE 12.7 mph - N/A   Clear
11:57 PM 64.4 °F - 44.6 °F 49% 30.01 in 10.0 mi Calm Calm - N/A   Clear